Terug naar catalogus

STARLINK-36760

ActiefCommunicatieVLEO
NORAD 68956·PAYLOAD·🇺🇸 United States

Gelanceerd May 1, 2026 vanaf Cape Canaveral Space Force Station

Loading…

Volgende Passages (komende 24 uur)

TLE

VersSource: CelesTrak SupGP

Epoch: Sep 14, 2026, 22:49 UTC

1 68956C 26099F   26257.95118056  .00006039  00000+0  17843-3 0  2577
2 68956  53.1577 101.8805 0001281  82.4361 161.0863 15.34384131    12

Volg STARLINK-36760 in realtime met AllMySat

Download on the App Store